Location: Fayetteville
(35.0530°N, 78.8790°W)
Time: 23:28:58
(UTC-04:00)

ISS - Visible Passes

Search period start: 16 September 2014 00:00
Search period end: 26 September 2014 00:00
Orbit: 414 x 417 km, 51.6° (Epoch: 16 September)

Date Brightness Start Highest point End Pass type
(mag) Time Alt. Az. Time Alt. Az. Time Alt. Az.
16 Sep -1.0 04:56:32 21° NNE 04:56:32 21° NNE 04:57:57 10° NNE visible
17 Sep -0.7 05:42:47 11° NW 05:43:19 11° NNW 05:44:20 10° N visible
18 Sep -0.3 04:56:04 12° N 04:56:04 12° N 04:56:29 10° NNE visible
